Find Starlink 3560

NORAD ID: 51859 Int'l Des: 2022-022 Owner: SPXS Country: US Constellation: starlink operational
LEOCIRCULAR

当前视图

正在加载3D地球...

About Starlink 3560

Starlink 3560 (NORAD 51859) is a starlink constellation satellite (v1.5) launched Mar 3, 2022 by SPXS of US. It operates in LEO, CIRCULAR orbit with a mass of 297.00 kg.

关于 Starlink 3560

正在加载描述...

即将过境

Passes for default location (London). Set your location on the main map for personalized predictions.

高度历史

Loading altitude history...

两行轨道根数

1 51859U 22022H 26173.51387287 .00001222 00000-0 94872-4 0 9997
2 51859 53.1604 258.4271 0001176 85.1500 274.9626 15.08829779238984
Epoch: Jun 22, 2026 • Age: 19 hours

当前状态

高度 559.1 km
速度 7.58 km/s
星下点 -53.27°S, 145.26°E
发射日期 Mar 3, 2022
运行时间 4.3 years
类型 internet

技术详情

分类 Payload
质量 297.00 kg
干质量 275.00 kg
总质量 297.00 kg
长度 0.20 m
直径 2.80 m
跨度 9.00 m
形状 Box + pan
制造商 SPXS
平台类型 Starlink
阶段状态 In Orbit
所有者/国家 SPXS/US

Most Searched